Regional Weather Roundup
Issued by NWS

Home | Current Version | Previous Version | Graphics & Text | Print | Product List | Glossary On
Versions: 1 2 3 4 5 6 7 8 9 10 11 12 13 14 15 16 17 18 19 20 21 22 23 24 25 26 27 28 29 30 31 32 33 34 35 36 37 38 39 40 41 42 43 44 45 46 47 48 49 50
000
ASUS43 KLOT 281312
RWRIL

ILLINOIS REGIONAL WEATHER ROUNDUP
NATIONAL WEATHER SERVICE CHICAGO/ROMEOVILLE IL
800 AM CDT TUE APR 28 2015

NOTE: "FAIR" INDICATES FEW OR NO CLOUDS BELOW 12,000 FEET WITH NO
SIGNIFICANT WEATHER AND/OR OBSTRUCTIONS TO VISIBILITY.

* THESE STATIONS ARE NOT UNDER NWS QUALITY CONTROL. THEY ALSO MAY NOT
  REPORT WEATHER SUCH AS PRECIPITATION OR FOG.

ILZ001-002-007-009-015-016-024-281400-
NORTHWEST ILLINOIS

CITY           SKY/WX    TMP DP  RH WIND       PRES   REMARKS
MOLINE         SUNNY     47  38  71 E3        30.14S
STERLING*      SUNNY     45  39  81 CALM      30.17S
SAVANNA*       SUNNY     47  38  71 E5        30.16F
$$

ILZ003-004-008-010-011-017-018-281400-
NORTH CENTRAL ILLINOIS

CITY           SKY/WX    TMP DP  RH WIND       PRES   REMARKS
ROCKFORD       MOSUNNY   46  37  71 CALM      30.20R
FREEPORT*      SUNNY     41  36  83 CALM      30.19S
ROCHELLE*      SUNNY     44  37  76 N3        30.18R
DE KALB*       SUNNY     42  34  72 N6        30.17S
PERU*          SUNNY     45  36  70 E3        30.17S
$$

ILZ005-006-012>014-019>023-281400-
NORTHEAST ILLINOIS

CITY           SKY/WX    TMP DP  RH WIND       PRES   REMARKS
CHICAGO-OHARE  MOSUNNY   45  34  65 N5        30.16S
CHICAGO-MIDWAY MOSUNNY   48  36  63 N3        30.16F
AURORA         SUNNY     45  35  68 CALM      30.17S
LANSING*       SUNNY     43  36  75 CALM      30.17S
JOLIET*        SUNNY     46  38  72 CALM      30.17S
WAUKEGAN       SUNNY     43  35  73 N6        30.16S
DUPAGE AIRPORT SUNNY     44  36  73 N5        30.16S
KANKAKEE*      SUNNY     43  38  80 CALM      30.18S
WHEELING       SUNNY     44  34  67 N5        30.19R
MORRIS*        SUNNY     43  36  77 CALM      30.14R
ROMEOVILLE*    SUNNY     44  35  70 E3        30.16F
NORTHERLY ISL    N/A     45  37  73 NE2         N/A
$$

LMZ740>746-281400-
SOUTHERN LAKE MICHIGAN

STATION/POSITION SKY/WX   TEMP    WIND        PRES    VSBY  WAVE
                          AIR SEA DIR/SP/G                  HT/PER
                          (F)     (DEG/KT/KT) (MB)    (MI)  (FT/S)
HARRISON CRIB              41     350/  8/ 10   N/A
BURNHAM HARBOR             45      60/  1/  7   N/A
CALUMET HARBOR             43     260/  1/  2   N/A
BURNS HARBOR               43     280/  2/  4 1022.0R
MICHIGAN CITY              40     160/  3/  4   N/A
MICHIGAN CITY 6N           42 46  280/  4/  6   N/A           1/ 4
$$

ILZ025>027-034>036-040-047-049-050-058-095>099-281400-
WEST-CENTRAL ILLINOIS

CITY           SKY/WX    TMP DP  RH WIND       PRES   REMARKS
QUINCY         SUNNY     49  39  68 SE5       30.15R
GALESBURG*     SUNNY     49  39  68 S5        30.15S
MACOMB*        SUNNY     47  41  80 CALM      30.18R
JACKSONVILLE*  SUNNY     49  39  67 E6        30.15S
PITTSFIELD*    SUNNY     47  42  81 CALM      30.16S
$$

ILZ028>032-037-038-041>044-048-051>054-059>061-281400-
CENTRAL ILLINOIS

CITY           SKY/WX    TMP DP  RH WIND       PRES   REMARKS
PONTIAC        SUNNY     45  38  77 CALM      30.18R
BLOOMINGTON    SUNNY     44  37  76 E5        30.17S
DECATUR        SUNNY     45  37  73 E7        30.16S
PEORIA         SUNNY     48  38  68 E6        30.17R
LACON*         SUNNY     44  37  75 CALM      30.16S
LINCOLN*       SUNNY     46  37  73 CALM      30.17S
SPRINGFIELD    SUNNY     47  37  68 E5        30.17R
TAYLORVILLE    SUNNY     43  36  75 NE5       30.16S
$$

ILZ033-039-045-046-055>057-062-063-281400-
EAST-CENTRAL ILLINOIS

CITY           SKY/WX    TMP DP  RH WIND       PRES   REMARKS
CHAMPAIGN      SUNNY     45  37  73 NE8       30.16S
DANVILLE*      SUNNY     43  38  84 N3        30.14S
RANTOUL*       SUNNY     46  38  74 N5        30.16S
MATTOON        SUNNY     43  37  79 NE6       30.15R
PARIS*         SUNNY     44  39  82 NE3       30.16S
$$

ILZ079-100>102-281400-
SOUTHWEST ILLINOIS

CITY           SKY/WX    TMP DP  RH WIND       PRES   REMARKS
ALTON          SUNNY     46  37  71 N13       30.14S
BELLEVILLE     SUNNY     47  40  76 N10       30.13R
CAHOKIA*       SUNNY     49  38  65 NE8       30.14R
SPARTA*        SUNNY     45  40  82 NE7       30.13R
$$

ILZ064>066-069>071-074>076-080>082-084>086-088>090-092>094-281400-
SOUTH-CENTRAL ILLINOIS

CITY           SKY/WX    TMP DP  RH WIND       PRES   REMARKS
CARBONDALE     SUNNY     49  39  68 NE8       30.11R
CAIRO*         MOSUNNY   49  40  70 NE12      30.08R
EFFINGHAM*     SUNNY     46  36  68 NE7       30.16S
MARION         SUNNY     48  39  71 N12       30.11R
MT. VERNON     SUNNY     46  37  71 NE8       30.13S
CENTRALIA*     SUNNY     51  38  59 NE7       30.13S
SALEM*         SUNNY     48  39  72 NE5       30.13S
METROPOLIS*    SUNNY     49  42  76 NE7       30.07F
$$

ILZ067-068-072-073-078-083-087-091-281400-
SOUTHEAST ILLINOIS

CITY           SKY/WX    TMP DP  RH WIND       PRES   REMARKS
LAWRENCEVILLE  SUNNY     48  39  71 NE9       30.14R
FLORA*         SUNNY     45  39  79 N7        30.14S
FAIRFIELD*     SUNNY     46  39  76 N7        30.12S
HARRISBURG*    SUNNY     49  40  72 NE7       30.12R
ROBINSON*      SUNNY     46  40  79 NE6       30.16R
CARMI*         SUNNY     48  38  68 NE6       30.11S
$$

ABBREVIATIONS USED IN REMARKS
   TC - TEMPERATURE IN CELSIUS
  WCI - WIND CHILL INDEX
   HX - HEAT INDEX
  VSB - VISIBILITY
$$




USA.gov is the U.S. government's official web portal to all federal, state and local government web resources and services.